Weather History for Milwaukee, WI

Change the Weather History Date:

Monday, October 25, 2010

  Actual Average Record
Temperature  
Mean Temperature 62 °F 48 °F  
Max Temperature 69 °F 56 °F 76 °F (1899)
Min Temperature 54 °F 40 °F 15 °F (1887)
Degree Days  
Heating Degree Days 3 17  
Month to date heating degree days 211 325  
Since 1 July heating degree days 329 477  
Cooling Degree Days 0 0  
Month to date cooling degree days 3 3  
Year to date cooling degree days 944 637  
Growing Degree Days 12 (Base 50)    
Moisture  
Dew Point 56 °F    
Average Humidity 79    
Maximum Humidity 100    
Minimum Humidity 57    
Precipitation  
Precipitation T in 0.08 in 1.14 in (1939)
Month to date precipitation 1.09 2.12  
Year to date precipitation 32.06 29.48  
Snow  
Snow 0.00 in 0.00 in 1.00 in (1898)
Month to date snowfall 0.0 0.2  
Since 1 July snowfall 0.0 0.2  
Since 1 September snowfall 0.0 0.2  
Snow Depth 0.00 in    
Sea Level Pressure  
Sea Level Pressure 29.49 in    
Wind  
Wind Speed 10 mph (SSW)    
Max Wind Speed 20 mph    
Max Gust Speed 26 mph    
Visibility 8 miles    
Events      
T = Trace of Precipitation, MM = Missing Value Source: NWS Daily Summary

Daily Weather History Graph

Daily Weather History Graph

Search for Another Location

Airport:

Trip Planner

Search our weather history database for the weather conditions in past years. The results will help you decide how hot, cold, wet, or windy it might be!

Date:

Astronomy

Oct. 25, 2010 Rise Set
Actual Time 7:17 AM CDT 5:53 PM CDT
Civil Twilight 6:48 AM CDT 6:22 PM CDT
Nautical Twilight 6:14 AM CDT 6:55 PM CDT
Astronomical Twilight 5:42 AM CDT 7:28 PM CDT
Moon 7:15 PM CDT (10/25) 10:05 AM CDT (10/25)
Length of Visible Light 11h 34m
Length of Day
10h 36m
Waning Gibbous, 93% of the Moon is Illuminated
Oct 25
Waning Gibbous
Oct 30
Last Quarter
Nov 5
New
Nov 13
First Quarter
Nov 21
Full

Hourly Weather History & Observations

Time (CDT) Temp. Dew Point Humidity Pressure Visibility Wind Dir Wind Speed Gust Speed Precip Events Conditions
12:52 AM 57.0 °F 55.0 °F 93% 29.59 in 8.0 mi SSW 3.5 mph - N/A   Partly Cloudy
1:52 AM 54.0 °F 53.1 °F 97% 29.57 in 6.0 mi SSW 5.8 mph - N/A   Scattered Clouds
2:52 AM 55.0 °F 54.0 °F 96% 29.55 in 6.0 mi South 3.5 mph - N/A   Scattered Clouds
3:52 AM 57.0 °F 55.0 °F 93% 29.54 in 6.0 mi SSW 4.6 mph - N/A   Mostly Cloudy
4:52 AM 57.0 °F 55.9 °F 96% 29.53 in 6.0 mi SSW 5.8 mph - 0.00 in   Overcast
5:52 AM 57.9 °F 55.9 °F 93% 29.53 in 6.0 mi SSW 6.9 mph - 0.00 in   Mostly Cloudy
6:52 AM 57.9 °F 55.9 °F 93% 29.53 in 6.0 mi SSW 8.1 mph - N/A   Overcast
7:52 AM 59.0 °F 57.0 °F 93% 29.52 in 5.0 mi SSW 8.1 mph - N/A   Overcast
8:52 AM 59.0 °F 57.0 °F 93% 29.53 in 4.0 mi SSW 6.9 mph - N/A   Overcast
9:52 AM 61.0 °F 57.0 °F 87% 29.54 in 6.0 mi SW 12.7 mph - N/A   Mostly Cloudy
10:20 AM 60.8 °F 55.4 °F 82% 29.53 in 7.0 mi SW 12.7 mph - N/A   Mostly Cloudy
10:52 AM 62.1 °F 55.9 °F 80% 29.54 in 6.0 mi SW 12.7 mph - N/A   Haze
11:20 AM 62.6 °F 55.4 °F 77% 29.55 in 8.0 mi SW 15.0 mph - N/A   Overcast
11:52 AM 64.9 °F 55.0 °F 70% 29.54 in 10.0 mi SSW 15.0 mph - N/A   Mostly Cloudy
12:38 PM 64.4 °F 53.6 °F 68% 29.52 in 10.0 mi WSW 10.4 mph - N/A   Mostly Cloudy
12:52 PM 64.9 °F 55.0 °F 70% 29.52 in 10.0 mi SW 12.7 mph - N/A   Mostly Cloudy
1:52 PM 68.0 °F 54.0 °F 61% 29.49 in 10.0 mi SSW 16.1 mph - N/A   Mostly Cloudy
2:52 PM 68.0 °F 54.0 °F 61% 29.48 in 10.0 mi SW 13.8 mph - N/A   Mostly Cloudy
3:52 PM 69.1 °F 54.0 °F 58% 29.47 in 10.0 mi South 6.9 mph - N/A   Mostly Cloudy
4:52 PM 68.0 °F 54.0 °F 61% 29.46 in 10.0 mi South 6.9 mph - N/A   Mostly Cloudy
5:52 PM 63.0 °F 55.0 °F 75% 29.44 in 10.0 mi SE 5.8 mph - N/A   Mostly Cloudy
6:52 PM 62.1 °F 55.0 °F 78% 29.43 in 10.0 mi SE 6.9 mph - N/A   Mostly Cloudy
7:52 PM 61.0 °F 55.9 °F 83% 29.42 in 9.0 mi SE 8.1 mph - N/A   Mostly Cloudy
8:52 PM 64.9 °F 57.9 °F 78% 29.40 in 8.0 mi SSE 13.8 mph - N/A   Mostly Cloudy
9:52 PM 64.9 °F 57.9 °F 78% 29.37 in 8.0 mi SSE 17.3 mph 26.5 mph N/A   Overcast
10:52 PM 64.0 °F 57.9 °F 80% 29.35 in 8.0 mi SSE 15.0 mph 24.2 mph N/A   Overcast
11:52 PM 64.0 °F 57.9 °F 80% 29.31 in 9.0 mi SSE 15.0 mph - N/A   Overcast